| time (UTC) | temp F | wind direction | speed knots | gust knots | rain 1hr in | rain 24hr in | rain mn in | humidity % | barometer mb |
| 20260502152204 | 54 | 167 | 3.5 | 10.4 | 0.00 | 0.00 | 0.00 | 55 | 1015.4 |
| 20260502151705 | 54 | 242 | 4.3 | 8.7 | 0.00 | 0.00 | 0.00 | 55 | 1015.3 |
| 20260502151205 | 54 | 125 | 0.9 | 8.7 | 0.00 | 0.00 | 0.00 | 59 | 1014.9 |
| 20260502150705 | 54 | 214 | 0.0 | 0.0 | 0.00 | 0.00 | 0.00 | 58 | 1014.8 |
| 20260502130704 | 53 | 169 | 0.0 | 7.0 | 0.00 | 0.00 | 0.00 | 71 | 1014.4 |
| 20260502130206 | 53 | 173 | 0.0 | 0.0 | 0.00 | 0.00 | 0.00 | 72 | 1014.4 |
| 20260502123705 | 53 | 136 | 0.0 | 7.0 | 0.00 | 0.00 | 0.00 | 72 | 1014.3 |
| 20260502123204 | 52 | 184 | 0.0 | 0.0 | 0.00 | 0.00 | 0.00 | 74 | 1014.1 |
| 20260502122704 | 52 | 180 | 0.9 | 2.6 | 0.00 | 0.00 | 0.00 | 73 | 1014.0 |
| 20260502121704 | 52 | 150 | 0.9 | 10.4 | 0.00 | 0.00 | 0.00 | 75 | 1013.9 |
| 20260502121206 | 52 | 159 | 0.0 | 0.9 | 0.00 | 0.00 | 0.00 | 77 | 1013.9 |
| 20260502120705 | 52 | 159 | 0.0 | 0.0 | 0.00 | 0.00 | 0.00 | 76 | 1013.8 |
| 20260502120205 | 52 | 160 | 1.7 | 6.1 | 0.00 | 0.00 | 0.00 | 75 | 1013.9 |
| 20260502115204 | 52 | 120 | 0.9 | 2.6 | 0.00 | 0.00 | 0.00 | 77 | 1013.8 |
| 20260502114705 | 51 | 188 | 0.0 | 0.0 | 0.00 | 0.00 | 0.00 | 79 | 1013.8 |
| 20260502114205 | 51 | 187 | 0.0 | 0.0 | 0.00 | 0.00 | 0.00 | 79 | 1013.8 |
| 20260502113704 | 51 | 174 | 0.0 | 0.0 | 0.00 | 0.00 | 0.00 | 79 | 1013.9 |
| 20260502113205 | 51 | 167 | 0.0 | 0.0 | 0.00 | 0.00 | 0.00 | 82 | 1013.9 |
| 20260502112705 | 51 | 294 | 0.0 | 0.0 | 0.00 | 0.00 | 0.00 | 83 | 1013.9 |
| 20260502112204 | 51 | 294 | 0.0 | 0.0 | 0.00 | 0.00 | 0.00 | 84 | 1013.7 |
| 20260502111705 | 51 | 296 | 0.0 | 0.0 | 0.00 | 0.00 | 0.00 | 86 | 1013.8 |
| 20260502110704 | 51 | 298 | 0.0 | 0.0 | 0.00 | 0.00 | 0.00 | 86 | 1013.8 |
| 20260502110204 | 51 | 298 | 0.0 | 0.0 | 0.00 | 0.00 | 0.00 | 85 | 1013.9 |
| 20260502105704 | 51 | 298 | 0.0 | 0.0 | 0.00 | 0.00 | 0.00 | 85 | 1014.0 |
| 20260502105204 | 51 | 298 | 0.0 | 0.0 | 0.00 | 0.00 | 0.00 | 85 | 1014.0 |
| 20260502104704 | 51 | 298 | 0.0 | 0.0 | 0.00 | 0.00 | 0.00 | 85 | 1013.9 |
| 20260502103204 | 51 | 298 | 0.0 | 0.0 | 0.00 | 0.00 | 0.00 | 85 | 1013.8 |
| 20260502102706 | 51 | 298 | 0.0 | 0.0 | 0.00 | 0.00 | 0.00 | 85 | 1013.8 |
| 20260502101704 | 51 | 298 | 0.0 | 0.0 | 0.00 | 0.00 | 0.00 | 85 | 1013.7 |
| 20260502101204 | 51 | 298 | 0.0 | 0.0 | 0.00 | 0.00 | 0.00 | 85 | 1013.6 |
| 20260502100704 | 51 | 298 | 0.0 | 0.0 | 0.00 | 0.00 | 0.00 | 84 | 1013.5 |
| 20260502100204 | 51 | 298 | 0.0 | 0.0 | 0.00 | 0.00 | 0.00 | 84 | 1013.4 |
| 20260502091204 | 51 | 298 | 0.0 | 0.0 | 0.00 | 0.00 | 0.00 | 84 | 1013.1 |
| 20260502090704 | 51 | 298 | 0.0 | 0.0 | 0.00 | 0.00 | 0.00 | 84 | 1013.0 |
| 20260502090204 | 51 | 298 | 0.0 | 0.0 | 0.00 | 0.00 | 0.00 | 84 | 1013.0 |
| 20260502071203 | 53 | 299 | 0.0 | 0.0 | 0.00 | 0.00 | 0.00 | 80 | 1012.6 |
| 20260502070706 | 53 | 299 | 0.0 | 0.0 | 0.00 | 0.00 | 0.00 | 80 | 1012.6 |
| 20260502070204 | 53 | 299 | 0.0 | 0.0 | 0.00 | 0.00 | 0.00 | 79 | 1012.6 |
| 20260502065704 | 53 | 299 | 0.0 | 0.0 | 0.00 | 0.00 | 0.00 | 80 | 1012.6 |
| 20260502065204 | 53 | 299 | 0.0 | 0.0 | 0.00 | 0.00 | 0.00 | 80 | 1012.6 |
| 20260502064704 | 53 | 299 | 0.0 | 0.0 | 0.00 | 0.00 | 0.00 | 78 | 1012.6 |
| 20260502064204 | 53 | 299 | 0.0 | 0.0 | 0.00 | 0.00 | 0.00 | 78 | 1012.5 |
| 20260502063704 | 53 | 299 | 0.0 | 0.0 | 0.00 | 0.00 | 0.00 | 78 | 1012.7 |
| 20260502063204 | 53 | 299 | 0.0 | 0.0 | 0.00 | 0.00 | 0.00 | 78 | 1012.7 |
| 20260502062704 | 53 | 299 | 0.0 | 0.0 | 0.00 | 0.00 | 0.00 | 78 | 1012.8 |
| 20260502062205 | 54 | 299 | 0.0 | 0.0 | 0.00 | 0.00 | 0.00 | 78 | 1012.8 |
| 20260502060704 | 54 | 299 | 0.0 | 0.0 | 0.00 | 0.00 | 0.00 | 76 | 1012.9 |
| 20260502060204 | 54 | 299 | 0.0 | 0.0 | 0.00 | 0.00 | 0.00 | 75 | 1012.8 |
| 20260502055703 | 54 | 299 | 0.0 | 0.0 | 0.00 | 0.00 | 0.00 | 75 | 1012.8 |
| 20260502055204 | 54 | 300 | 0.0 | 0.0 | 0.00 | 0.00 | 0.00 | 75 | 1012.8 |
| 20260502054704 | 54 | 300 | 0.0 | 0.0 | 0.00 | 0.00 | 0.00 | 75 | 1012.9 |
| 20260502054203 | 54 | 300 | 0.0 | 0.0 | 0.00 | 0.00 | 0.00 | 74 | 1013.0 |
| 20260502053206 | 54 | 300 | 0.0 | 0.0 | 0.00 | 0.00 | 0.00 | 74 | 1013.0 |
| 20260502052704 | 55 | 300 | 0.0 | 0.0 | 0.00 | 0.00 | 0.00 | 74 | 1013.0 |
| 20260502052203 | 55 | 300 | 0.0 | 0.0 | 0.00 | 0.00 | 0.00 | 74 | 1012.9 |
| 20260502051705 | 55 | 299 | 0.0 | 0.0 | 0.00 | 0.00 | 0.00 | 74 | 1013.0 |
| 20260502051203 | 55 | 299 | 0.0 | 0.0 | 0.00 | 0.00 | 0.00 | 74 | 1013.1 |
| 20260502045704 | 55 | 299 | 0.0 | 0.0 | 0.00 | 0.00 | 0.00 | 73 | 1013.2 |
| 20260502045205 | 55 | 299 | 0.0 | 0.0 | 0.00 | 0.00 | 0.00 | 73 | 1013.3 |
| 20260502044203 | 55 | 299 | 0.0 | 0.0 | 0.00 | 0.00 | 0.00 | 72 | 1013.3 |
| 20260502043703 | 55 | 299 | 0.0 | 0.0 | 0.00 | 0.00 | 0.00 | 72 | 1013.5 |
| 20260502043204 | 55 | 299 | 0.0 | 0.0 | 0.00 | 0.00 | 0.00 | 72 | 1013.5 |
| 20260502042204 | 56 | 299 | 0.0 | 0.0 | 0.00 | 0.00 | 0.00 | 72 | 1013.5 |
| 20260502041704 | 56 | 299 | 0.0 | 0.0 | 0.00 | 0.00 | 0.00 | 71 | 1013.7 |
| 20260502041204 | 56 | 299 | 0.0 | 0.0 | 0.00 | 0.00 | 0.00 | 71 | 1013.6 |
| 20260502040204 | 56 | 299 | 0.0 | 0.0 | 0.00 | 0.00 | 0.00 | 70 | 1013.5 |
| 20260502035703 | 56 | 299 | 0.0 | 0.0 | 0.00 | 0.00 | 0.00 | 70 | 1013.5 |
| 20260502035203 | 56 | 299 | 0.0 | 0.0 | 0.00 | 0.00 | 0.00 | 70 | 1013.5 |
| 20260502034703 | 56 | 299 | 0.0 | 0.0 | 0.00 | 0.00 | 0.00 | 69 | 1013.5 |
| 20260502034204 | 56 | 299 | 0.0 | 0.0 | 0.00 | 0.00 | 0.00 | 69 | 1013.4 |
| 20260502033704 | 57 | 299 | 0.0 | 0.0 | 0.00 | 0.00 | 0.00 | 69 | 1013.4 |
| 20260502033203 | 57 | 299 | 0.0 | 0.0 | 0.00 | 0.00 | 0.00 | 69 | 1013.4 |
| 20260502032703 | 57 | 299 | 0.0 | 0.0 | 0.00 | 0.00 | 0.00 | 69 | 1013.3 |
| 20260502032203 | 57 | 298 | 0.0 | 0.0 | 0.00 | 0.00 | 0.00 | 68 | 1013.2 |
| 20260502031704 | 57 | 298 | 0.0 | 0.0 | 0.00 | 0.00 | 0.00 | 68 | 1013.1 |
| 20260502025706 | 58 | 298 | 0.0 | 0.0 | 0.00 | 0.00 | 0.00 | 67 | 1012.9 |
| 20260502025207 | 58 | 298 | 0.0 | 0.0 | 0.00 | 0.00 | 0.00 | 66 | 1012.9 |
| 20260502024707 | 58 | 298 | 0.0 | 0.0 | 0.00 | 0.00 | 0.00 | 65 | 1012.8 |
| 20260502023706 | 58 | 298 | 0.0 | 0.0 | 0.00 | 0.00 | 0.00 | 65 | 1013.0 |
| 20260502023207 | 58 | 298 | 0.0 | 0.0 | 0.00 | 0.00 | 0.00 | 65 | 1012.9 |
| 20260502022706 | 58 | 298 | 0.0 | 0.0 | 0.00 | 0.00 | 0.00 | 64 | 1013.0 |
| 20260502022205 | 58 | 298 | 0.0 | 0.0 | 0.00 | 0.00 | 0.00 | 64 | 1013.1 |
| 20260502021705 | 59 | 298 | 0.0 | 0.0 | 0.00 | 0.00 | 0.00 | 63 | 1013.1 |
| 20260502020707 | 59 | 298 | 0.0 | 0.0 | 0.00 | 0.00 | 0.00 | 62 | 1013.1 |
| 20260502020205 | 59 | 298 | 0.0 | 0.0 | 0.00 | 0.00 | 0.00 | 62 | 1013.1 |
| 20260502015705 | 59 | 298 | 0.0 | 0.0 | 0.00 | 0.00 | 0.00 | 61 | 1013.1 |
| 20260502014706 | 59 | 298 | 0.0 | 0.0 | 0.00 | 0.00 | 0.00 | 60 | 1013.1 |
| 20260502013707 | 59 | 298 | 0.0 | 0.0 | 0.00 | 0.00 | 0.00 | 59 | 1013.0 |
| 20260502013205 | 60 | 298 | 0.0 | 0.0 | 0.00 | 0.00 | 0.00 | 58 | 1012.8 |
| 20260502012205 | 60 | 298 | 0.0 | 0.0 | 0.00 | 0.00 | 0.00 | 57 | 1012.7 |
| 20260502011707 | 60 | 298 | 0.0 | 0.0 | 0.00 | 0.00 | 0.00 | 57 | 1012.7 |
| 20260502010705 | 61 | 298 | 0.0 | 0.0 | 0.00 | 0.00 | 0.00 | 55 | 1012.5 |
| 20260502010206 | 61 | 298 | 0.0 | 0.0 | 0.00 | 0.00 | 0.00 | 54 | 1012.4 |
| 20260502005705 | 61 | 298 | 0.0 | 0.0 | 0.00 | 0.00 | 0.00 | 53 | 1012.4 |
| 20260502005206 | 61 | 298 | 0.0 | 0.0 | 0.00 | 0.00 | 0.00 | 52 | 1012.2 |
| 20260502004705 | 62 | 298 | 0.0 | 0.0 | 0.00 | 0.00 | 0.00 | 52 | 1012.2 |
| 20260502003705 | 62 | 298 | 0.0 | 0.0 | 0.00 | 0.00 | 0.00 | 51 | 1012.0 |
| 20260502003207 | 62 | 298 | 0.0 | 0.0 | 0.00 | 0.00 | 0.00 | 51 | 1011.9 |
| 20260502002706 | 63 | 298 | 0.0 | 0.0 | 0.00 | 0.00 | 0.00 | 50 | 1012.0 |
| 20260502002206 | 63 | 298 | 0.0 | 0.0 | 0.00 | 0.00 | 0.00 | 49 | 1012.0 |
| 20260502001206 | 63 | 298 | 0.0 | 0.0 | 0.00 | 0.00 | 0.00 | 48 | 1011.9 |
| 20260502000705 | 63 | 298 | 0.0 | 0.0 | 0.00 | 0.00 | 0.00 | 48 | 1011.9 |
| 20260502000207 | 64 | 298 | 0.0 | 0.0 | 0.00 | 0.00 | 0.00 | 47 | 1012.0 |
| 20260501235706 | 64 | 298 | 0.0 | 0.0 | 0.00 | 0.00 | 0.00 | 47 | 1011.9 |
| 20260501235205 | 64 | 298 | 0.0 | 0.0 | 0.00 | 0.00 | 0.00 | 47 | 1012.0 |
| 20260501234706 | 64 | 298 | 0.0 | 0.0 | 0.00 | 0.00 | 0.00 | 46 | 1011.8 |
| 20260501234206 | 65 | 297 | 0.0 | 0.0 | 0.00 | 0.00 | 0.00 | 45 | 1011.8 |
| 20260501233706 | 65 | 297 | 0.0 | 0.0 | 0.00 | 0.00 | 0.00 | 45 | 1011.9 |
| 20260501233205 | 65 | 297 | 0.0 | 0.0 | 0.00 | 0.00 | 0.00 | 45 | 1011.7 |
| 20260501232707 | 65 | 297 | 0.0 | 0.0 | 0.00 | 0.00 | 0.00 | 45 | 1011.7 |
| 20260501232207 | 65 | 297 | 0.0 | 0.0 | 0.00 | 0.00 | 0.00 | 44 | 1011.6 |
| 20260501231206 | 66 | 297 | 0.0 | 0.0 | 0.00 | 0.00 | 0.00 | 43 | 1011.6 |
| 20260501230705 | 66 | 297 | 0.0 | 0.0 | 0.00 | 0.00 | 0.00 | 43 | 1011.6 |
| 20260501230205 | 66 | 297 | 0.0 | 0.9 | 0.00 | 0.00 | 0.00 | 42 | 1011.6 |
| 20260501225706 | 66 | 297 | 3.5 | 7.0 | 0.00 | 0.00 | 0.00 | 43 | 1011.7 |
| 20260501225207 | 66 | 290 | 0.0 | 2.6 | 0.00 | 0.00 | 0.00 | 42 | 1011.7 |
| 20260501224706 | 67 | 290 | 1.7 | 2.6 | 0.00 | 0.00 | 0.00 | 44 | 1011.8 |
| 20260501224206 | 67 | 290 | 5.2 | 6.1 | 0.00 | 0.00 | 0.00 | 42 | 1011.7 |
| 20260501223705 | 67 | 284 | 0.0 | 0.0 | 0.00 | 0.00 | 0.00 | 43 | 1011.9 |
| 20260501223205 | 67 | 282 | 0.0 | 2.6 | 0.00 | 0.00 | 0.00 | 42 | 1012.0 |
| 20260501222705 | 67 | 292 | 1.7 | 2.6 | 0.00 | 0.00 | 0.00 | 41 | 1012.0 |
| 20260501222205 | 67 | 292 | 3.5 | 4.3 | 0.00 | 0.00 | 0.00 | 39 | 1012.0 |
| 20260501221705 | 67 | 292 | 1.7 | 4.3 | 0.00 | 0.00 | 0.00 | 39 | 1012.0 |
| 20260501221207 | 67 | 290 | 0.0 | 0.0 | 0.00 | 0.00 | 0.00 | 39 | 1011.9 |
| 20260501215706 | 67 | 288 | 0.0 | 0.0 | 0.00 | 0.00 | 0.00 | 40 | 1012.1 |
| 20260501215205 | 67 | 271 | 0.0 | 0.0 | 0.00 | 0.00 | 0.00 | 40 | 1012.0 |
| 20260501214205 | 67 | 264 | 4.3 | 6.1 | 0.00 | 0.00 | 0.00 | 40 | 1012.0 |
| 20260501213705 | 68 | 302 | 2.6 | 6.1 | 0.00 | 0.00 | 0.00 | 43 | 1012.0 |
| 20260501213205 | 68 | 302 | 0.0 | 2.6 | 0.00 | 0.00 | 0.00 | 43 | 1012.0 |
| 20260501212205 | 68 | 299 | 7.0 | 8.7 | 0.00 | 0.00 | 0.00 | 40 | 1012.0 |
| 20260501211706 | 68 | 296 | 0.9 | 6.1 | 0.00 | 0.00 | 0.00 | 41 | 1011.9 |
| 20260501211206 | 67 | 296 | 5.2 | 7.0 | 0.00 | 0.00 | 0.00 | 38 | 1012.0 |
| 20260501210705 | 68 | 40 | 0.0 | 2.6 | 0.00 | 0.00 | 0.00 | 39 | 1011.9 |
| 20260501210205 | 68 | 284 | 3.5 | 7.0 | 0.00 | 0.00 | 0.00 | 43 | 1011.9 |
| 20260501205705 | 68 | 306 | 0.0 | 0.0 | 0.00 | 0.00 | 0.00 | 40 | 1011.9 |
| 20260501205206 | 68 | 66 | 0.0 | 0.0 | 0.00 | 0.00 | 0.00 | 39 | 1011.9 |
| 20260501204705 | 68 | 299 | 0.9 | 4.3 | 0.00 | 0.00 | 0.00 | 41 | 1012.2 |
| 20260501204205 | 68 | 301 | 6.1 | 7.0 | 0.00 | 0.00 | 0.00 | 39 | 1012.1 |
| 20260501203706 | 68 | 292 | 4.3 | 7.0 | 0.00 | 0.00 | 0.00 | 39 | 1012.3 |
| 20260501203205 | 68 | 291 | 4.3 | 6.1 | 0.00 | 0.00 | 0.00 | 39 | 1012.3 |
| 20260501202705 | 68 | 289 | 4.3 | 10.4 | 0.00 | 0.00 | 0.00 | 40 | 1012.3 |
| 20260501202205 | 68 | 9 | 0.0 | 0.0 | 0.00 | 0.00 | 0.00 | 37 | 1012.5 |
| 20260501201206 | 68 | 300 | 7.8 | 10.4 | 0.00 | 0.00 | 0.00 | 39 | 1012.7 |
| 20260501200706 | 68 | 296 | 0.0 | 4.3 | 0.00 | 0.00 | 0.00 | 39 | 1012.7 |
| 20260501200205 | 68 | 296 | 4.3 | 6.1 | 0.00 | 0.00 | 0.00 | 40 | 1012.6 |
| 20260501195705 | 67 | 296 | 0.0 | 0.0 | 0.00 | 0.00 | 0.00 | 38 | 1012.8 |
| 20260501195206 | 67 | 296 | 0.9 | 4.3 | 0.00 | 0.00 | 0.00 | 39 | 1012.9 |
| 20260501194705 | 67 | 296 | 2.6 | 7.0 | 0.00 | 0.00 | 0.00 | 39 | 1013.1 |
| 20260501194205 | 67 | 295 | 2.6 | 10.4 | 0.00 | 0.00 | 0.00 | 38 | 1013.1 |
| 20260501193705 | 67 | 298 | 6.1 | 10.4 | 0.00 | 0.00 | 0.00 | 40 | 1013.1 |
| 20260501193205 | 67 | 296 | 3.5 | 7.0 | 0.00 | 0.00 | 0.00 | 39 | 1013.3 |
| 20260501192705 | 67 | 296 | 4.3 | 7.0 | 0.00 | 0.00 | 0.00 | 41 | 1013.2 |
| 20260501192205 | 66 | 298 | 2.6 | 7.0 | 0.00 | 0.00 | 0.00 | 42 | 1013.5 |
| 20260501191705 | 66 | 297 | 4.3 | 7.0 | 0.00 | 0.00 | 0.00 | 41 | 1013.5 |
| 20260501190705 | 66 | 297 | 6.1 | 7.0 | 0.00 | 0.00 | 0.00 | 42 | 1013.6 |
| 20260501190204 | 66 | 300 | 0.0 | 0.0 | 0.00 | 0.00 | 0.00 | 42 | 1013.6 |
| 20260501185705 | 66 | 81 | 1.7 | 6.1 | 0.00 | 0.00 | 0.00 | 40 | 1013.8 |
| 20260501185205 | 66 | 310 | 0.0 | 0.0 | 0.00 | 0.00 | 0.00 | 40 | 1013.9 |
| 20260501184705 | 65 | 4 | 0.0 | 0.9 | 0.00 | 0.00 | 0.00 | 42 | 1014.0 |
| 20260501184206 | 65 | 298 | 2.6 | 7.0 | 0.00 | 0.00 | 0.00 | 38 | 1014.0 |
| 20260501183705 | 65 | 303 | 1.7 | 4.3 | 0.00 | 0.00 | 0.00 | 40 | 1014.1 |
| 20260501183205 | 65 | 303 | 1.7 | 7.0 | 0.00 | 0.00 | 0.00 | 40 | 1014.3 |
| 20260501182705 | 65 | 59 | 0.9 | 4.3 | 0.00 | 0.00 | 0.00 | 40 | 1014.2 |
| 20260501182204 | 65 | 30 | 0.9 | 7.0 | 0.00 | 0.00 | 0.00 | 41 | 1014.3 |
| 20260501181705 | 65 | 45 | 2.6 | 10.4 | 0.00 | 0.00 | 0.00 | 39 | 1014.4 |
| 20260501181206 | 65 | 305 | 5.2 | 7.0 | 0.00 | 0.00 | 0.00 | 40 | 1014.5 |
| 20260501180705 | 65 | 221 | 0.0 | 0.0 | 0.00 | 0.00 | 0.00 | 41 | 1014.5 |
| 20260501180205 | 65 | 223 | 0.9 | 4.3 | 0.00 | 0.00 | 0.00 | 39 | 1014.6 |
| 20260501175705 | 65 | 291 | 2.6 | 6.1 | 0.00 | 0.00 | 0.00 | 43 | 1014.7 |
| 20260501175204 | 65 | 298 | 2.6 | 7.0 | 0.00 | 0.00 | 0.00 | 41 | 1014.7 |
| 20260501173205 | 66 | 263 | 0.0 | 0.0 | 0.00 | 0.00 | 0.00 | 36 | 1015.0 |
| 20260501171704 | 67 | 330 | 0.0 | 0.0 | 0.00 | 0.00 | 0.00 | 39 | 1015.1 |
| 20260501171204 | 66 | 313 | 0.0 | 0.0 | 0.00 | 0.00 | 0.00 | 40 | 1015.2 |
| 20260501170705 | 66 | 313 | 0.0 | 0.9 | 0.00 | 0.00 | 0.00 | 39 | 1015.2 |
| 20260501170204 | 66 | 313 | 0.9 | 4.3 | 0.00 | 0.00 | 0.00 | 38 | 1015.3 |
| 20260501165704 | 66 | 313 | 4.3 | 4.3 | 0.00 | 0.00 | 0.00 | 37 | 1015.3 |
| 20260501164206 | 64 | 323 | 0.0 | 0.0 | 0.00 | 0.00 | 0.00 | 38 | 1015.4 |
| 20260501163706 | 64 | 323 | 0.0 | 0.0 | 0.00 | 0.00 | 0.00 | 44 | 1015.4 |
| 20260501162705 | 64 | 323 | 0.0 | 0.0 | 0.00 | 0.00 | 0.00 | 44 | 1015.6 |
| 20260501162204 | 64 | 323 | 0.0 | 0.0 | 0.00 | 0.00 | 0.00 | 41 | 1015.7 |
| 20260501161204 | 63 | 323 | 0.0 | 0.0 | 0.00 | 0.00 | 0.00 | 42 | 1015.9 |
| 20260501155705 | 63 | 240 | 0.0 | 0.0 | 0.00 | 0.00 | 0.00 | 42 | 1016.0 |
| 20260501155206 | 63 | 97 | 0.0 | 0.0 | 0.00 | 0.00 | 0.00 | 44 | 1016.1 |